This is the latest recevied weather packets stored in our database for station/object KC3ROS. If no packets are shown the sender has not sent any weather packets the latest 10 day(s).
| Time | Temp. | Humidity | Pressure | Rain* | Wind** | Luminosity | Snow |
|---|---|---|---|---|---|---|---|
| 1777501232 | 12.78° C | 99% | 1006.2 hPa | 0 mm | - | 18 W/m² | - |
| 1777500930 | 12.78° C | 99% | 1005.9 hPa | 0 mm | - | 18 W/m² | - |
| 1777500627 | 12.78° C | 99% | 1005.8 hPa | 0 mm | - | 12 W/m² | - |
| 1777500324 | 12.78° C | 99% | 1006 hPa | 0 mm | - | 15 W/m² | - |
| 1777500020 | 12.78° C | 99% | 1005.8 hPa | 0 mm | - | 31 W/m² | - |
| 1777499717 | 13.33° C | 99% | 1005.7 hPa | 0 mm | - | 49 W/m² | - |
| 1777499414 | 12.78° C | 99% | 1005.4 hPa | 0 mm | - | 83 W/m² | - |
| 1777499112 | 13.33° C | 99% | 1005.6 hPa | 0 mm | - | 40 W/m² | - |
| 1777498808 | 13.33° C | 99% | 1005.6 hPa | 0 mm | - | 54 W/m² | - |
| 1777498505 | 13.33° C | 99% | 1005.6 hPa | 0 mm | - | 28 W/m² | - |
| 1777498201 | 13.33° C | 99% | 1005.3 hPa | 0 mm | - | 38 W/m² | - |
| 1777497899 | 13.33° C | 99% | 1005.2 hPa | 0 mm | - | 30 W/m² | - |
| 1777497595 | 13.33° C | 99% | 1005.3 hPa | 0 mm | - | 28 W/m² | - |
| 1777497291 | 13.33° C | 99% | 1005.3 hPa | 0 mm | - | 29 W/m² | - |
| 1777496987 | 13.33° C | 99% | 1005.1 hPa | 0 mm | - | 76 W/m² | - |
| 1777496685 | 13.33° C | 99% | 1005.1 hPa | 0 mm | - | 131 W/m² | - |
| 1777496381 | 13.33° C | 99% | 1005.1 hPa | 0 mm | - | 182 W/m² | - |
| 1777496078 | 13.89° C | 99% | 1005 hPa | 0 mm | - | 149 W/m² | - |
| 1777495773 | 13.89° C | 99% | 1004.8 hPa | 0 mm | - | 220 W/m² | - |
| 1777495470 | 12.78° C | 99% | 1004.7 hPa | 0.51 mm | - | 367 W/m² | - |
| 1777495166 | 12.78° C | 99% | 1005.2 hPa | 1.27 mm | - | 218 W/m² | - |
| 1777494864 | 13.33° C | 99% | 1005.1 hPa | 1.27 mm | - | 95 W/m² | - |
| 1777494561 | 13.33° C | 99% | 1005.1 hPa | 0.51 mm | - | 86 W/m² | - |
| 1777494258 | 13.33° C | 99% | 1005.3 hPa | 0 mm | - | 62 W/m² | - |
| 1777493954 | 13.33° C | 99% | 1005.2 hPa | 0 mm | - | 42 W/m² | - |
* Rain latest hour (hover to see other rain measurements)
** Current wind speed in m/s (hover to see current wind gust speed)